Location: PSU-Greenbush Astrophysical Observatory
(37.5140°N, 94.9880°W)
Time: 19:30:34
(UTC-05:00)

BEESAT - Pass Details

Date: 25 February 2020
Orbit: 700 x 709 km, 98.6° (Epoch: 28 March)

Event Time Altitude Azimuth Distance (km) Brightness Sun altitude
Rises 18:49:18 0° 2° (N) 3,092 ? -8.7°
Reaches altitude 10° 18:51:43 10° 354° (N) 2,170 ? -9.1°
Maximum altitude 18:55:58 34° 290° (WNW) 1,157 ? -10.0°
Drops below altitude 10° 19:00:11 10° 227° (SW) 2,157 ? -10.8°
Sets 19:02:36 0° 218° (SW) 3,072 ? -11.3°
